Weather History for Omak, WA

Change the Weather History Date:

Monday, March 10, 2014

  Actual Average Record
Temperature  
Mean Temperature 47 °F 39 °F  
Max Temperature 60 °F 50 °F 66 °F (2005)
Min Temperature 33 °F 29 °F -7 °F (1951)
Degree Days  
Heating Degree Days 18 26  
Month to date heating degree days 282 276  
Since 1 July heating degree days 5272 5137  
Cooling Degree Days 0 0  
Month to date cooling degree days 0 0  
Year to date cooling degree days 0 0  
Moisture  
Dew Point 29 °F    
Average Humidity 46    
Maximum Humidity 65    
Minimum Humidity 27    
Precipitation  
Precipitation T in 0.04 in 0.72 in (1950)
Month to date precipitation 0.52 0.39  
Year to date precipitation 2.34 3.38  
Sea Level Pressure  
Sea Level Pressure 30.00 in    
Wind  
Wind Speed 8 mph (NNW)    
Max Wind Speed 21 mph    
Max Gust Speed 29 mph    
Visibility 10 miles    
Events      
T = Trace of Precipitation, MM = Missing Value Source: NWS Daily Summary

Daily Weather History Graph

Daily Weather History Graph

Search for Another Location

Airport:

Trip Planner

Search our weather history database for the weather conditions in past years. The results will help you decide how hot, cold, wet, or windy it might be!

Date:

Astronomy

Mar. 10, 2014 Rise Set
Actual Time 7:21 AM PDT 6:56 PM PDT
Civil Twilight 6:50 AM PDT 7:27 PM PDT
Nautical Twilight 6:13 AM PDT 8:03 PM PDT
Astronomical Twilight 5:37 AM PDT 8:40 PM PDT
Moon 1:25 PM PDT (3/10) 3:56 AM PDT (3/10)
Length of Visible Light 12h 37m
Length of Day
11h 34m
Waxing Gibbous, 71% of the Moon is Illuminated
Mar 10
Waxing Gibbous
Mar 16
Full
Mar 23
Last Quarter
Mar 30
New
Apr 7
First Quarter

Hourly Weather History & Observations

Time (PDT) Temp. Windchill Dew Point Humidity Pressure Visibility Wind Dir Wind Speed Gust Speed Precip Events Conditions
12:53 AM 46.9 °F - 30.9 °F 54% 29.87 in 10.0 mi North 8.1 mph - N/A   Overcast
1:53 AM 46.0 °F 43.9 °F 30.9 °F 56% 29.86 in 10.0 mi North 4.6 mph - N/A   Overcast
2:53 AM 46.0 °F 42.5 °F 30.0 °F 54% 29.86 in 10.0 mi North 6.9 mph - N/A   Overcast
3:53 AM 45.0 °F 43.5 °F 30.0 °F 56% 29.87 in 10.0 mi NNW 3.5 mph - N/A   Overcast
4:53 AM 45.0 °F 39.7 °F 28.9 °F 53% 29.87 in 10.0 mi North 10.4 mph - N/A   Overcast
5:53 AM 44.1 °F 39.5 °F 28.9 °F 55% 29.88 in 10.0 mi NNW 8.1 mph - N/A   Overcast
6:53 AM 44.1 °F 41.5 °F 32.0 °F 63% 29.90 in 10.0 mi WNW 4.6 mph - 0.00 in   Overcast
7:53 AM 44.1 °F 41.5 °F 30.9 °F 60% 29.90 in 10.0 mi West 4.6 mph - N/A   Overcast
8:53 AM 45.0 °F 42.6 °F 33.1 °F 63% 29.90 in 10.0 mi SW 4.6 mph - N/A   Scattered Clouds
9:53 AM 46.0 °F - 33.1 °F 61% 29.94 in 10.0 mi Calm Calm - N/A   Clear
10:53 AM 50.0 °F - 32.0 °F 50% 29.94 in 10.0 mi Calm Calm - N/A   Clear
11:53 AM 54.0 °F - 30.0 °F 40% 29.95 in 10.0 mi North 4.6 mph - N/A   Clear
12:53 PM 55.0 °F - 28.9 °F 37% 29.95 in 10.0 mi NNE 10.4 mph - N/A   Partly Cloudy
1:53 PM 55.9 °F - 28.0 °F 34% 29.96 in 10.0 mi North 9.2 mph - N/A   Partly Cloudy
2:53 PM 60.1 °F - 28.0 °F 30% 29.96 in 10.0 mi NNE 10.4 mph - N/A   Overcast
3:53 PM 55.9 °F - 23.0 °F 28% 29.98 in 10.0 mi North 9.2 mph - N/A   Overcast
4:53 PM 55.0 °F - 25.0 °F 31% 30.03 in 10.0 mi NNW 10.4 mph - N/A   Mostly Cloudy
5:53 PM 51.1 °F - 28.0 °F 41% 30.08 in 10.0 mi North 18.4 mph 28.8 mph 0.00 in   Mostly Cloudy
6:53 PM 48.0 °F - 28.9 °F 48% 30.13 in 10.0 mi North 10.4 mph - N/A   Mostly Cloudy
7:53 PM 45.0 °F 39.7 °F 28.0 °F 52% 30.17 in 10.0 mi North 10.4 mph - N/A   Clear
8:53 PM 44.1 °F 38.6 °F 28.9 °F 55% 30.21 in 10.0 mi North 10.4 mph - N/A   Mostly Cloudy
9:53 PM 42.1 °F 37.1 °F 28.9 °F 60% 30.25 in 10.0 mi NNW 8.1 mph - N/A   Clear
10:53 PM 39.9 °F 34.5 °F 28.0 °F 63% 30.28 in 10.0 mi NW 8.1 mph - N/A   Clear
11:53 PM 37.0 °F 31.6 °F 27.0 °F 67% 30.31 in 10.0 mi WNW 6.9 mph - N/A   Clear